Location: Ferchesar
(52.6477°N, 12.4298°E)
Time: 17:33:48
(UTC+01:00)

Explorer 7 - Pass Details

Date: 14 December 2021
Orbit: 483 x 674 km, 50.3° (Epoch: 23 January)

Event Time Altitude Azimuth Distance (km) Brightness Sun altitude
Rises 06:54:03 0° 279° (W) 2,822 - -11.2°
Reaches altitude 10° 06:56:32 10° 271° (W) 1,884 - -10.9°
Exits shadow 06:56:59 13° 269° (W) 1,719 8.8 -10.8°
Maximum altitude 07:00:26 35° 205° (SSW) 895 7.9 -10.4°
Drops below altitude 10° 07:04:08 10° 139° (SE) 1,771 10.6 -9.9°
Sets 07:06:23 0° 130° (SE) 2,628 12.1 -9.5°
